Location: Saluda
(35.2377°N, 82.3468°W)
Time: 05:14:27
(UTC+00:00)

Vanguard 2 Rocket - Pass Details

Date: 09 October 2022
Orbit: 555 x 3321 km, 32.9° (Epoch: 04 December)

Event Time Altitude Azimuth Distance (km) Brightness Sun altitude
Rises 06:41:31 0° 280° (W) 6,262 - -55.1°
Reaches altitude 10° 06:46:22 10° 277° (W) 4,821 - -54.5°
Maximum altitude 06:58:22 59° 203° (SSW) 1,626 - -52.8°
Drops below altitude 10° 07:05:03 10° 125° (SE) 2,772 - -51.8°
Sets 07:07:09 0° 120° (ESE) 3,488 - -51.5°
